Jenks, OK

4:41 AM CST on February 27, 2017 (GMT -0600)
Jones Jr.

Weather History for KRVS - September, 2013

Change the Weather History Date:

Saturday, September 14, 2013

  Actual Average (KTUL) Record (KTUL)
Temperature  
Mean Temperature 74 °F -  
Max Temperature 88 °F 83 °F 103 °F (1965)
Min Temperature 61 °F 63 °F 46 °F (1961)
Cooling Degree Days 9    
Growing Degree Days 24 (Base 50)    
Moisture  
Dew Point 57 °F    
Average Humidity 55    
Maximum Humidity 81    
Minimum Humidity 38    
Precipitation  
Precipitation 0.00 in - - ()
Sea Level Pressure  
Sea Level Pressure 30.01 in    
Wind  
Wind Speed 6 mph (SE)    
Max Wind Speed 10 mph    
Max Gust Speed 16 mph    
Visibility 10 miles    
Events      
Averages and records for this station are not official NWS values.
T = Trace of Precipitation, MM = Missing Value Source: NWS Daily Summary

Daily Weather History Graph

Daily Weather History Graph

Search for Another Location

Airport or City:

Trip Planner

Search our weather history database for the weather conditions in past years. The results will help you decide how hot, cold, wet, or windy it might be!

Date:

Astronomy

Sep. 14, 2013 Rise Set
Actual Time 7:05 AM CDT 7:32 PM CDT
Civil Twilight 6:40 AM CDT 7:57 PM CDT
Nautical Twilight 6:09 AM CDT 8:28 PM CDT
Astronomical Twilight 5:39 AM CDT 8:58 PM CDT
Moon 4:07 PM CDT (9/14) 1:46 AM CDT (9/14)
Length of Visible Light 13h 17m
Length of Day
12h 26m
Waxing Gibbous, 72% of the Moon is Illuminated
Sep 14
Waxing Gibbous
Sep 19
Full
Sep 26
Last Quarter
Oct 4
New
Oct 11
First Quarter

Hourly Weather History & Observations

Time (CDT) Temp. Heat Index Dew Point Humidity Pressure Visibility Wind Dir Wind Speed Gust Speed Precip Events Conditions
12:53 AM 69.1 °F - 53.1 °F 57% 30.03 in 10.0 mi NE 6.9 mph - N/A   Clear
1:53 AM 68.0 °F - 53.1 °F 59% 30.02 in 10.0 mi NE 4.6 mph - N/A   Clear
2:53 AM 64.9 °F - 54.0 °F 68% 30.03 in 10.0 mi NE 5.8 mph - N/A   Clear
3:53 AM 63.0 °F - 54.0 °F 72% 30.01 in 10.0 mi NNE 4.6 mph - N/A   Clear
4:53 AM 63.0 °F - 54.0 °F 72% 30.02 in 10.0 mi NE 5.8 mph - N/A   Clear
5:53 AM 63.0 °F - 55.0 °F 75% 30.03 in 10.0 mi Calm Calm - N/A   Clear
6:53 AM 61.0 °F - 55.0 °F 81% 30.04 in 10.0 mi Calm Calm - N/A   Clear
7:53 AM 64.9 °F - 55.0 °F 70% 30.07 in 10.0 mi Calm Calm - N/A   Clear
8:53 AM 69.1 °F - 55.9 °F 63% 30.07 in 10.0 mi SSE 6.9 mph - N/A   Clear
9:53 AM 73.9 °F - 55.9 °F 53% 30.07 in 10.0 mi SE 8.1 mph - N/A   Clear
10:53 AM 78.1 °F - 55.9 °F 46% 30.07 in 10.0 mi ESE 10.4 mph - N/A   Clear
11:53 AM 81.0 °F 80.8 °F 55.9 °F 42% 30.06 in 10.0 mi Variable 6.9 mph - N/A   Clear
12:53 PM 82.0 °F 81.7 °F 57.0 °F 42% 30.04 in 10.0 mi SSE 8.1 mph 16.1 mph N/A   Clear
2:53 PM 84.9 °F 84.2 °F 57.9 °F 40% 30.00 in 10.0 mi ESE 6.9 mph - N/A   Clear
3:53 PM 86.0 °F 85.0 °F 57.9 °F 38% 29.98 in 10.0 mi Variable 5.8 mph - N/A   Clear
4:53 PM 87.1 °F 86.5 °F 59.0 °F 39% 29.96 in 10.0 mi SSE 6.9 mph - N/A   Clear
5:53 PM 86.0 °F 85.4 °F 59.0 °F 40% 29.95 in 10.0 mi South 5.8 mph - N/A   Clear
6:53 PM 84.0 °F 84.0 °F 60.1 °F 44% 29.96 in 10.0 mi South 8.1 mph - N/A   Clear
7:53 PM 82.0 °F 82.7 °F 61.0 °F 49% 29.96 in 10.0 mi South 4.6 mph - N/A   Clear
8:53 PM 80.1 °F 80.9 °F 60.1 °F 50% 29.96 in 10.0 mi SSE 4.6 mph - N/A   Clear
9:53 PM 78.1 °F - 59.0 °F 52% 29.97 in 10.0 mi SE 5.8 mph - N/A   Clear
10:53 PM 77.0 °F - 57.9 °F 52% 29.98 in 10.0 mi South 4.6 mph - N/A   Clear
11:53 PM 75.0 °F - 55.0 °F 50% 29.99 in 10.0 mi South 6.9 mph - N/A   Clear